2020-03-30 00:09:56 r, 18.38m,0000000004Hz,0000116073c,0000000.252s, 017.7C,00002195
2020-03-30 00:19:56 r, 18.38m,0000000004Hz,0000116145c,0000000.252s, 017.7C,00002195
2020-03-30 00:29:56 r, 18.38m,0000000004Hz,0000117048c,0000000.254s, 017.7C,00002195
2020-03-30 00:39:56 r, 18.38m,0000000004Hz,0000116358c,0000000.253s, 017.7C,00002195
2020-03-30 00:49:56 r, 18.36m,0000000004Hz,0000114558c,0000000.249s, 017.4C,00002195
2020-03-30 00:59:56 r, 18.37m,0000000004Hz,0000115361c,0000000.250s, 017.4C,00002195
2020-03-30 01:09:56 r, 18.36m,0000000004Hz,0000114398c,0000000.248s, 017.4C,00002195
2020-03-30 01:19:56 r, 18.37m,0000000004Hz,0000115169c,0000000.250s, 017.4C,00002195
2020-03-30 01:29:57 r, 18.37m,0000000004Hz,0000115245c,0000000.250s, 017.0C,00002195
2020-03-30 01:39:56 r, 18.36m,0000000004Hz,0000113914c,0000000.247s, 017.0C,00002195
2020-03-30 01:49:56 r, 18.34m,0000000004Hz,0000112347c,0000000.244s, 017.0C,00002195
2020-03-30 01:59:57 r, 18.37m,0000000004Hz,0000115479c,0000000.251s, 017.0C,00002195
2020-03-30 02:09:56 r, 18.42m,0000000004Hz,0000120879c,0000000.262s, 016.7C,00002195
2020-03-30 02:19:56 r, 18.45m,0000000003Hz,0000124660c,0000000.271s, 016.7C,00002195
2020-03-30 02:29:57 r, 18.45m,0000000004Hz,0000124072c,0000000.269s, 016.7C,00002195
2020-03-30 02:39:56 r, 18.42m,0000000004Hz,0000120970c,0000000.263s, 016.7C,00002195
2020-03-30 02:49:56 r, 18.39m,0000000004Hz,0000117750c,0000000.256s, 016.4C,00002195
2020-03-30 02:59:58 r, 18.41m,0000000003Hz,0000119901c,0000000.260s, 016.4C,00002195
2020-03-30 03:09:56 r, 18.45m,0000000004Hz,0000123962c,0000000.269s, 016.4C,00002195
2020-03-30 03:19:57 r, 18.47m,0000000004Hz,0000126638c,0000000.275s, 016.4C,00002195
2020-03-30 03:29:57 r, 18.46m,0000000003Hz,0000125734c,0000000.273s, 016.4C,00002195
2020-03-30 03:39:56 r, 18.41m,0000000003Hz,0000119021c,0000000.258s, 016.4C,00002195
2020-03-30 03:49:56 r, 18.35m,0000000004Hz,0000113239c,0000000.246s, 016.1C,00002195
2020-03-30 03:59:57 r, 18.36m,0000000004Hz,0000114247c,0000000.248s, 016.1C,00002195
2020-03-30 04:09:56 r, 18.37m,0000000004Hz,0000115362c,0000000.250s, 016.1C,00002195
2020-03-30 04:19:56 r, 18.30m,0000000004Hz,0000108514c,0000000.235s, 016.1C,00002195
2020-03-30 04:29:56 r, 18.35m,0000000004Hz,0000113324c,0000000.246s, 016.1C,00002195
2020-03-30 04:39:56 r, 18.25m,0000000005Hz,0000103039c,0000000.224s, 016.1C,00002195
2020-03-30 04:49:56 r, 18.20m,0000000004Hz,0000099202c,0000000.215s, 016.1C,00002195
2020-03-30 04:59:57 r, 18.23m,0000000004Hz,0000101838c,0000000.221s, 016.1C,00002195
2020-03-30 05:09:57 r, 18.25m,0000000004Hz,0000103603c,0000000.225s, 016.1C,00002195
2020-03-30 05:19:56 r, 18.25m,0000000005Hz,0000103901c,0000000.225s, 016.1C,00002195
2020-03-30 05:29:56 r, 18.26m,0000000005Hz,0000104854c,0000000.228s, 016.1C,00002195
2020-03-30 05:39:57 r, 18.30m,0000000004Hz,0000108460c,0000000.235s, 016.1C,00002195
2020-03-30 05:49:56 r, 18.24m,0000000004Hz,0000102706c,0000000.223s, 016.1C,00002195
2020-03-30 05:59:56 r, 18.08m,0000000005Hz,0000088346c,0000000.192s, 016.1C,00002195
2020-03-30 06:09:56 r, 17.66m,0000000008Hz,0000059803c,0000000.130s, 016.1C,00002195
2020-03-30 06:19:58 r, 16.65m,0000000019Hz,0000023818c,0000000.052s, 016.1C,00002195
2020-03-30 06:29:57 r, 14.87m,0000000099Hz,0000004631c,0000000.010s, 015.7C,00002195
2020-03-30 06:39:58 r, 12.76m,0000000700Hz,0000000000c,0000000.000s, 016.1C,00002195
2020-03-30 06:49:56 r, 10.77m,0000004381Hz,0000000000c,0000000.000s, 015.7C,00002195
2020-03-30 06:59:57 r, 09.01m,0000022118Hz,0000000000c,0000000.000s, 015.7C,00002195
2020-03-30 07:09:56 r, 07.85m,0000064736Hz,0000000000c,0000000.000s, 016.1C,00002195
2020-03-30 07:19:56 r, 06.94m,0000148662Hz,0000000000c,0000000.000s, 016.1C,00002195
2020-03-30 07:29:58 r, 06.26m,0000279040Hz,0000000000c,0000000.000s, 016.1C,00002195
2020-03-30 07:39:56 r, 00.00m,0000458585Hz,0000000000c,0000000.000s, 016.7C,00002195
2020-03-30 07:49:56 r, 00.00m,0000562869Hz,0000000000c,0000000.000s, 017.0C,00002195
2020-03-30 07:59:58 r, 00.00m,0000562933Hz,0000000000c,0000000.000s, 017.4C,00002195
2020-03-30 08:09:57 r, 00.00m,0000563066Hz,0000000000c,0000000.000s, 017.7C,00002195
2020-03-30 08:19:56 r, 00.00m,0000563131Hz,0000000000c,0000000.000s, 018.3C,00002195
2020-03-30 08:29:57 r, 00.00m,0000563186Hz,0000000000c,0000000.000s, 019.0C,00002195
2020-03-30 08:39:57 r, 00.00m,0000563209Hz,0000000000c,0000000.000s, 019.6C,00002195
2020-03-30 08:49:56 r, 00.00m,0000563207Hz,0000000000c,0000000.000s, 020.3C,00002195
2020-03-30 08:59:56 r, 00.00m,0000563273Hz,0000000000c,0000000.000s, 020.3C,00002195
2020-03-30 09:09:56 r, 00.00m,0000563312Hz,0000000000c,0000000.000s, 021.2C,00002195
2020-03-30 09:19:56 r, 00.00m,0000563517Hz,0000000000c,0000000.000s, 021.5C,00002195
2020-03-30 09:29:57 r, 00.00m,0000563493Hz,0000000000c,0000000.000s, 022.5C,00002195
2020-03-30 09:39:56 r, 00.00m,0000563600Hz,0000000000c,0000000.000s, 023.2C,00002195
2020-03-30 09:49:56 r, 00.00m,0000563736Hz,0000000000c,0000000.000s, 023.8C,00002195
2020-03-30 09:59:56 r, 00.00m,0000563837Hz,0000000000c,0000000.000s, 024.4C,00002195
2020-03-30 10:09:56 r, 00.00m,0000563949Hz,0000000000c,0000000.000s, 025.7C,00002195
2020-03-30 10:19:56 r, 00.00m,0000564017Hz,0000000000c,0000000.000s, 026.4C,00002195
2020-03-30 10:29:58 r, 00.00m,0000564134Hz,0000000000c,0000000.000s, 026.7C,00002195
2020-03-30 10:39:57 r, 00.00m,0000564247Hz,0000000000c,0000000.000s, 027.7C,00002195
2020-03-30 10:49:56 r, 00.00m,0000564243Hz,0000000000c,0000000.000s, 028.0C,00002195
2020-03-30 10:59:57 r, 00.00m,0000564311Hz,0000000000c,0000000.000s, 028.3C,00002195
2020-03-30 11:09:57 r, 00.00m,0000564459Hz,0000000000c,0000000.000s, 029.0C,00002195
2020-03-30 11:19:56 r, 00.00m,0000564410Hz,0000000000c,0000000.000s, 029.0C,00002195
2020-03-30 11:29:56 r, 00.00m,0000564492Hz,0000000000c,0000000.000s, 029.9C,00002195
2020-03-30 11:39:59 r, 00.00m,0000564516Hz,0000000000c,0000000.000s, 030.2C,00002195
2020-03-30 11:49:56 r, 00.00m,0000564598Hz,0000000000c,0000000.000s, 030.9C,00002195
2020-03-30 11:59:56 r, 00.00m,0000564705Hz,0000000000c,0000000.000s, 031.2C,00002195
2020-03-30 12:09:57 r, 00.00m,0000564695Hz,0000000000c,0000000.000s, 031.9C,00002195
2020-03-30 12:19:56 r, 00.00m,0000564674Hz,0000000000c,0000000.000s, 031.5C,00002195
2020-03-30 12:29:59 r, 00.00m,0000564771Hz,0000000000c,0000000.000s, 032.2C,00002195
2020-03-30 12:39:56 r, 00.00m,0000564840Hz,0000000000c,0000000.000s, 032.8C,00002195
2020-03-30 12:49:56 r, 00.00m,0000564890Hz,0000000000c,0000000.000s, 033.5C,00002195
2020-03-30 12:59:57 r, 00.00m,0000564842Hz,0000000000c,0000000.000s, 033.8C,00002195
2020-03-30 13:09:56 r, 00.00m,0000564812Hz,0000000000c,0000000.000s, 034.1C,00002195
2020-03-30 13:19:56 r, 00.00m,0000564990Hz,0000000000c,0000000.000s, 034.8C,00002195
2020-03-30 13:29:56 r, 00.00m,0000565109Hz,0000000000c,0000000.000s, 035.4C,00002195
2020-03-30 13:39:56 r, 00.00m,0000565146Hz,0000000000c,0000000.000s, 036.0C,00002195
2020-03-30 13:49:56 r, 00.00m,0000565124Hz,0000000000c,0000000.000s, 036.4C,00002195
2020-03-30 13:59:58 r, 00.00m,0000565159Hz,0000000000c,0000000.000s, 037.0C,00002195
2020-03-30 14:09:57 r, 00.00m,0000565261Hz,0000000000c,0000000.000s, 037.0C,00002195
2020-03-30 14:19:56 r, 00.00m,0000565245Hz,0000000000c,0000000.000s, 037.0C,00002195
2020-03-30 14:29:56 r, 00.00m,0000565171Hz,0000000000c,0000000.000s, 037.3C,00002195
2020-03-30 14:39:57 r, 00.00m,0000565166Hz,0000000000c,0000000.000s, 037.3C,00002195
2020-03-30 14:49:56 r, 00.00m,0000565221Hz,0000000000c,0000000.000s, 038.0C,00002195
2020-03-30 14:59:59 r, 00.00m,0000565102Hz,0000000000c,0000000.000s, 037.7C,00002195
2020-03-30 15:09:56 r, 00.00m,0000565210Hz,0000000000c,0000000.000s, 038.0C,00002195
2020-03-30 15:19:56 r, 00.00m,0000565206Hz,0000000000c,0000000.000s, 038.3C,00002195
2020-03-30 15:29:56 r, 00.00m,0000565114Hz,0000000000c,0000000.000s, 037.7C,00002195
2020-03-30 15:39:56 r, 00.00m,0000565185Hz,0000000000c,0000000.000s, 038.0C,00002195
2020-03-30 15:49:56 r, 00.00m,0000565075Hz,0000000000c,0000000.000s, 038.0C,00002195
2020-03-30 15:59:56 r, 00.00m,0000565018Hz,0000000000c,0000000.000s, 037.3C,00002195
2020-03-30 16:09:59 r, 00.00m,0000565014Hz,0000000000c,0000000.000s, 037.0C,00002195
2020-03-30 16:19:56 r, 00.00m,0000565122Hz,0000000000c,0000000.000s, 037.0C,00002195
2020-03-30 16:29:56 r, 00.00m,0000565027Hz,0000000000c,0000000.000s, 037.0C,00002195
2020-03-30 16:39:57 r, 00.00m,0000564935Hz,0000000000c,0000000.000s, 036.4C,00002195
2020-03-30 16:49:56 r, 00.00m,0000564842Hz,0000000000c,0000000.000s, 036.4C,00002195
2020-03-30 16:59:56 r, 00.00m,0000564829Hz,0000000000c,0000000.000s, 036.0C,00002195
2020-03-30 17:09:57 r, 00.00m,0000564890Hz,0000000000c,0000000.000s, 035.7C,00002195
2020-03-30 17:19:56 r, 00.00m,0000564853Hz,0000000000c,0000000.000s, 035.4C,00002195
2020-03-30 17:29:56 r, 00.00m,0000564807Hz,0000000000c,0000000.000s, 035.1C,00002195
2020-03-30 17:39:58 r, 00.00m,0000564681Hz,0000000000c,0000000.000s, 034.8C,00002195
2020-03-30 17:49:56 r, 00.00m,0000564602Hz,0000000000c,0000000.000s, 034.4C,00002195
2020-03-30 17:59:56 r, 00.00m,0000564592Hz,0000000000c,0000000.000s, 034.1C,00002195
2020-03-30 18:09:56 r, 00.00m,0000564581Hz,0000000000c,0000000.000s, 033.5C,00002195
2020-03-30 18:19:56 r, 00.00m,0000564536Hz,0000000000c,0000000.000s, 033.1C,00002195
2020-03-30 18:29:58 r, 00.00m,0000564505Hz,0000000000c,0000000.000s, 032.8C,00002195
2020-03-30 18:39:57 r, 00.00m,0000564399Hz,0000000000c,0000000.000s, 032.2C,00002195
2020-03-30 18:49:56 r, 00.00m,0000564338Hz,0000000000c,0000000.000s, 031.5C,00002195
2020-03-30 18:59:56 r, 00.00m,0000564289Hz,0000000000c,0000000.000s, 030.9C,00002195
2020-03-30 19:09:56 r, 00.00m,0000552044Hz,0000000000c,0000000.000s, 030.2C,00002195
2020-03-30 19:19:56 r, 00.00m,0000442496Hz,0000000000c,0000000.000s, 029.6C,00002195
2020-03-30 19:29:56 r, 06.07m,0000333734Hz,0000000000c,0000000.000s, 029.0C,00002195
2020-03-30 19:39:57 r, 06.56m,0000212214Hz,0000000000c,0000000.000s, 028.0C,00002195
2020-03-30 19:49:56 r, 07.19m,0000118330Hz,0000000000c,0000000.000s, 027.0C,00002195
2020-03-30 19:59:56 r, 08.15m,0000048835Hz,0000000000c,0000000.000s, 026.1C,00002195
2020-03-30 20:09:59 r, 09.56m,0000013359Hz,0000000000c,0000000.000s, 025.4C,00002195
2020-03-30 20:19:56 r, 11.39m,0000002480Hz,0000000000c,0000000.000s, 024.8C,00002195
2020-03-30 20:29:56 r, 13.42m,0000000381Hz,0000000000c,0000000.000s, 024.4C,00002195
2020-03-30 20:39:56 r, 15.50m,0000000056Hz,0000008213c,0000000.018s, 024.1C,00002195
2020-03-30 20:49:56 r, 16.98m,0000000015Hz,0000032310c,0000000.070s, 023.5C,00002195
2020-03-30 20:59:56 r, 17.73m,0000000007Hz,0000064374c,0000000.140s, 023.2C,00002195
2020-03-30 21:09:56 r, 18.07m,0000000006Hz,0000087274c,0000000.189s, 022.8C,00002195
2020-03-30 21:19:58 r, 18.17m,0000000005Hz,0000096023c,0000000.208s, 022.5C,00002195
2020-03-30 21:29:56 r, 18.21m,0000000005Hz,0000099777c,0000000.217s, 022.5C,00002195
2020-03-30 21:39:58 r, 18.23m,0000000005Hz,0000100923c,0000000.219s, 022.2C,00002195
2020-03-30 21:49:56 r, 18.23m,0000000004Hz,0000101646c,0000000.221s, 022.2C,00002195
2020-03-30 21:59:56 r, 18.25m,0000000005Hz,0000103023c,0000000.224s, 021.9C,00002195
2020-03-30 22:09:57 r, 18.27m,0000000005Hz,0000104596c,0000000.227s, 021.9C,00002195
2020-03-30 22:19:59 r, 18.27m,0000000005Hz,0000104701c,0000000.227s, 021.9C,00002195
2020-03-30 22:29:56 r, 18.27m,0000000004Hz,0000105470c,0000000.229s, 021.5C,00002195
2020-03-30 22:39:56 r, 18.28m,0000000004Hz,0000105866c,0000000.230s, 021.5C,00002195
2020-03-30 22:49:56 r, 18.28m,0000000004Hz,0000106386c,0000000.231s, 021.5C,00002195
2020-03-30 22:59:56 r, 18.29m,0000000005Hz,0000106563c,0000000.231s, 021.2C,00002195
2020-03-30 23:09:59 r, 18.28m,0000000005Hz,0000107492c,0000000.233s, 020.9C,00002195
2020-03-30 23:19:57 r, 18.29m,0000000004Hz,0000107616c,0000000.234s, 020.9C,00002195
2020-03-30 23:29:59 r, 18.29m,0000000004Hz,0000108504c,0000000.235s, 020.6C,00002195
2020-03-30 23:39:56 r, 18.30m,0000000004Hz,0000109406c,0000000.237s, 020.6C,00002195
2020-03-30 23:49:58 r, 18.30m,0000000004Hz,0000109414c,0000000.237s, 020.6C,00002195
2020-03-30 23:59:56 r, 18.32m,0000000004Hz,0000111236c,0000000.241s, 020.6C,00002195
